EcAMSat
1 43019U 98067NG 19122.49003927 .00006993 00000-0 88722-4 0 9994
2 43019 51.6405 213.1322 0004450 294.3065 65.7464 15.60684040168355
PICSAT
1 43132U 18004X 19122.74226179 .00001363 00000-0 60169-4 0 9998
2 43132 97.4915 190.6457 0011280 64.6255 295.6148 15.23442085 72358
AO-92
1 43137U 18004AC 19122.73089151 .00001056 00000-0 47430-4 0 9994
2 43137 97.4907 190.6313 0010855 66.2541 293.9833 15.23360270 72344
TianYi 2
1 43155U 18008A 19122.85654172 .00000827 00000-0 53056-4 0 9998
2 43155 97.4886 196.3760 0019380 123.2464 300.2148 15.11060702 70757
Zhou Enlai
1 43156U 18008B 19122.89286997 .00000686 00000-0 45335-4 0 9993
2 43156 97.4927 196.3133 0016107 119.9148 329.0073 15.10557175 70731
TianYi 6
1 43158U 18008D 19122.79840108 .00000763 00000-0 50487-4 0 9994
2 43158 97.4890 195.7591 0015272 118.1530 359.9250 15.10165325 70686
S-Net G
1 43186U 18014G 19122.22300811 .00000663 00000-0 63220-4 0 9990
2 43186 97.7124 31.3598 0011685 157.1066 203.0678 14.96619029 68030
S-Net H
1 43187U 18014H 19122.75771124 .00000698 00000-0 66281-4 0 9996
2 43187 97.7123 31.8764 0011716 155.1419 205.0369 14.96619741 68114
S-Net J
1 43188U 18014J 19122.22262009 .00000655 00000-0 62554-4 0 9998
2 43188 97.7125 31.3640 0011647 157.1487 203.0255 14.96618701 68033
S-Net K
1 43189U 18014K 19122.22294789 .00000665 00000-0 63394-4 0 9993
2 43189 97.7123 31.3468 0011667 157.0344 203.1402 14.96618655 66584
FMN 1
1 43192U 18015A 19122.78654204 .00001848 00000-0 78752-4 0 9999
2 43192 97.3913 251.1535 0018116 98.2177 262.1118 15.24082140 69177
Shaonian Xing
1 43199U 18015H 19122.22331518 .00001344 00000-0 57095-4 0 9993
2 43199 97.3696 249.8216 0018838 110.2630 250.0636 15.24640633 69136
1KUNS-PF
1 43466U 98067NP 19122.48130434 .00022976 00000-0 23871-3 0 9995
2 43466 51.6377 213.7745 0001503 329.0168 31.0738 15.64513928 55524
UBAKUSAT
1 43467U 98067NQ 19122.52605057 .00015099 00000-0 17671-3 0 9998
2 43467 51.6375 216.3189 0002199 267.2503 92.8239 15.61777960 55506
Irazu
1 43468U 98067NR 19122.41891620 .00032915 00000-0 31072-3 0 9997
2 43468 51.6370 211.8454 0001970 334.5662 25.5236 15.66712925155536
EnduroSat One
1 43551U 98067NZ 19122.54419044 .00018173 00000-0 21299-3 0 9990
2 43551 51.6382 218.6871 0006417 331.0578 29.0060 15.61565896 45708
EQUISat
1 43552U 98067PA 19121.53058925 .00010049 00000-0 12528-3 0 9995
2 43552 51.6389 224.6797 0006541 326.2736 33.7840 15.60562466 45493
UiTMSat 1
1 43589U 98067PD 19121.53502514 .00011319 00000-0 14045-3 0 9990
2 43589 51.6365 225.4238 0005966 333.8214 26.2477 15.60537793 41226
Maya 1
1 43590U 98067PE 19122.49129206 .00017794 00000-0 21663-3 0 9998
2 43590 51.6369 220.5632 0006095 337.9840 22.0891 15.60590230 41308
Bhutan 1
1 43591U 98067PF 19122.29152338 .00017722 00000-0 21537-3 0 9990
2 43591 51.6382 221.4929 0006251 337.9317 22.1406 15.60638546 41278
SiriusSat 1
1 43595U 98067PG 19122.31891437 .00014966 00000-0 18796-3 0 9997
2 43595 51.6367 222.4101 0003739 299.3840 60.6780 15.59930136 40446
SiriusSat 2
1 43596U 98067PH 19122.34438435 .00016152 00000-0 20356-3 0 9990
2 43596 51.6378 222.6079 0004280 298.7318 61.3244 15.59767636 40446
Tanusha-3
1 43597U 98067PJ 19122.31960423 .00019250 00000-0 23028-3 0 9996
2 43597 51.6363 221.6429 0004100 313.5581 46.5072 15.60997578 40455
SurfSat
1 43614U 18070B 19121.88715279 .00002419 00000-0 66107-4 0 9995
2 43614 93.0276 343.9561 0018412 124.6241 235.6752 15.37306281 35064
CP-7 DAVE
1 43615U 18070C 19122.15102713 .00002136 00000-0 58495-4 0 9997
2 43615 93.0275 344.0670 0018500 123.4331 236.8694 15.37244316 35105
ELFIN-B
1 43616U 18070D 19122.11134709 .00003412 00000-0 91721-4 0 9991
2 43616 93.0243 343.9716 0019285 127.0422 233.2599 15.37762719 35109
ELFIN-A
1 43617U 18070E 19121.84605285 .00003318 00000-0 89175-4 0 9998
2 43617 93.0299 344.0399 0018466 124.8558 235.4435 15.37789970 35061
STARS-Me Mother
1 43640U 98067PQ 19122.15754939 .00010785 00000-0 14887-3 0 9997
2 43640 51.6382 225.8519 0005422 283.5042 76.5346 15.57750730 32313
CubeBel 1
1 43666U 18083E 19122.73822603 .00000981 00000-0 52280-4 0 9990
2 43666 97.5247 147.5305 0015182 358.5529 91.7170 15.17475420 28168
Changshagaoxin
1 43669U 18083H 19121.95358709 .00000611 00000-0 34597-4 0 9998
2 43669 097.5101 146.2021 0010694 355.7216 004.3924 15.16716290027995
Ten-Koh
1 43677U 18084G 19122.88740644 .00000058 00000-0 11761-4 0 9997
2 43677 97.8455 236.9391 0017528 78.2602 282.0581 14.90152911 27646
PO-101
1 43678U 18084H 19122.84708865 -.00000704 00000-0 -64578-4 0 9997
2 43678 97.8441 237.3120 0011261 96.0351 264.2155 14.91540761 27660
IRVINE 01
1 43693U 18088D 19122.78094285 .00002700 00000-0 11885-3 0 9993
2 43693 85.0364 349.1004 0019139 12.7693 347.4029 15.21179333 26232
QO-100
1 43700U 18090A 19122.79893753 .00000146 00000-0 00000 0 0 9998
2 43700 0.0465 86.6735 0001384 344.5627 102.5924 1.00273136 1820
Reaktor Hello World
1 43743U 18096AA 19122.77362448 .00001116 00000-0 45422-4 0 9991
2 43743 97.4627 192.8173 0019480 137.2492 339.3606 15.26486987 23572
MinXSS-2
1 43758U 18099A 19122.17790317 -.00000102 00000-0 -39796-5 0 9998
2 43758 97.7476 194.7858 0016971 123.4165 236.8682 14.95367995 22330
AO-95
1 43770U 18099N 19122.17369341 -.00000026 00000-0 29458-5 0 9999
2 43770 97.7478 194.6433 0015885 128.9054 231.3586 14.94731344 22328
RANGE-B
1 43772U 18099Q 19122.83530934 .00000249 00000-0 28106-4 0 9996
2 43772 97.7529 195.4091 0015741 115.4027 244.8824 14.94829397 22418
RANGE-A
1 43773U 18099R 19122.16774540 .00000047 00000-0 96423-5 0 9990
2 43773 97.7425 194.5567 0015034 117.1454 243.1301 14.94777835 22310
MOVE-II
1 43780U 18099Y 19122.95284501 .00001105 00000-0 10612-3 0 9998
2 43780 97.7479 195.4329 0015567 125.5647 234.6899 14.95002239 22420
SNUSat 2
1 43782U 18099AA 19122.74688525 .00000693 00000-0 68481-4 0 9990
2 43782 97.7473 195.2687 0014353 115.6775 244.5929 14.95020248 22407
SnugLite
1 43784U 18099AC 19122.20399880 .00000555 00000-0 55820-4 0 9996
2 43784 97.7437 194.6814 0016548 125.1243 235.1532 14.95094900 22332
ITASat 1
1 43786U 18099AE 19122.20234020 .00000448 00000-0 46053-4 0 9991
2 43786 97.7489 194.7883 0016637 124.2092 236.0708 14.95105534 22330
EAGLET 1
1 43790U 18099AJ 19122.16422976 .00000245 00000-0 27335-4 0 9997
2 43790 97.7485 194.8204 0014799 128.1084 232.1473 14.95484599 22023
ESEO
1 43792U 18099AL 19122.83090051 .00000749 00000-0 72744-4 0 9991
2 43792 97.7463 195.4508 0014623 122.4959 237.7635 14.95495495 22184
CSIM
1 43793U 18099AM 19122.75580192 .00000895 00000-0 85628-4 0 9990
2 43793 97.7424 195.2952 0014763 122.1377 238.1278 14.95635663 22146
Astrocast 0.1
1 43798U 18099AS 19122.74267034 .00000525 00000-0 52261-4 0 9998
2 43798 97.7467 195.4200 0014072 108.9842 251.2905 14.95712865 22400
JO-97
1 43803U 18099AX 19122.86033780 .00000209 00000-0 24187-4 0 9992
2 43803 97.7447 195.3783 0016565 122.9230 237.3587 14.95229163 22423
Suomi 100
1 43804U 18099AY 19122.85988477 .00000170 00000-0 20680-4 0 9995
2 43804 97.7445 195.3770 0016632 123.0243 237.2578 14.95230616 22434
Al Farabi 2
1 43805U 18099AZ 19122.85688417 .00000197 00000-0 23114-4 0 9991
2 43805 97.7448 195.3822 0016679 123.2295 237.0528 14.95277216 22436
PWSat 2
1 43814U 18099BJ 19122.16201893 .00015220 00000-0 12842-2 0 9991
2 43814 97.7757 195.1695 0014683 125.1325 235.1340 14.98151534 21733
